Погода в Хойане

Вьетнам     15°52′45″N   108°19′52″E
темп.,
°C
ветер,
м/с
пор.,
м/с
влажн.,
%
обл.,
%
осадки,
мм/ч
давл.,
гПа
погр.,
м
12 августа, пт
пт1201:00+26юз3378100 0.0 1005117
04:00+26ююз3473100 0.0 1005131
07:00+27зюз2474100 0.0 1006167
10:00+31з1460100 0.0 1007600
13:00+29св6572100 0.0 1005362
16:00+29св4578100 0.1 1005517
19:00+27всв1281100 2.4 100772
22:00+27юз2283100 1.9 1008115
13 августа, сб
сб1301:00+26юз3486100 1.9 1007119
04:00+25юз2286100 0.0 1007101
07:00+26юз3384100 0.1 1008124
10:00+29юз1270100 0.0 1009328
13:00+29св4371100 0.0 1007364
16:00+29св4573100 0.0 1005438
19:00+28юв2278100 0.0 1006212
22:00+27юз2282100 0.3 1008132
14 августа, вс
вс1401:00+26юз3383100 0.5 1007100
04:00+26зюз338381 0.0 1006105
07:00+27юз338197 0.0 1008148
10:00+30ююв226782 0.1 1008434
13:00+31всв426875 0.1 1006538
16:00+30в457111 0.0 1005434
19:00+28ююв23835 0.3 1006130
22:00+27ююз338584 0.2 1008157
15 августа, пн
пн1501:00+26юз4485100 0.2 1006116
04:00+25юз3483100 0.2 1005116
07:00+26юз3383100 0.6 1006143
10:00+30ююв216480 0.0 1007455
13:00+30в4367100 0.0 1005414
16:00+30в447071 0.0 1004392
19:00+27юв3485100 1.8 1005141
22:00+27юз338692 0.6 1007139
16 августа, вт
вт1601:00+26юз3486100 0.7 1005107
04:00+25юз3485100 0.4 1004113
07:00+26юз3483100 0.8 1006153
10:00+30ю1262100 0.0 1006429
13:00+30св446688 0.0 1004425
16:00+30св55676 0.0 1003429
19:00+28вюв22795 0.0 100544
22:00+27зюз228293 0.4 100681